Rock Hill, SC

12:47 PM EDT on June 28, 2017 (GMT -0400)
Rock Hill-York County-Bryant

Weather History for KUZA - November, 2011

Change the Weather History Date:

Sunday, November 20, 2011

  Actual Average Record
Temperature  
Mean Temperature 55 °F -  
Max Temperature 66 °F 62 °F 77 °F (1991)
Min Temperature 44 °F 42 °F 18 °F (1951)
Degree Days  
Heating Degree Days 10    
Growing Degree Days 5 (Base 50)    
Moisture  
Dew Point 55 °F    
Average Humidity 92    
Maximum Humidity 100    
Minimum Humidity 70    
Precipitation  
Precipitation 0.00 in - - ()
Sea Level Pressure  
Sea Level Pressure 30.31 in    
Wind  
Wind Speed 3 mph (SSW)    
Max Wind Speed 10 mph    
Max Gust Speed -    
Visibility 6 miles    
Events Rain    
Averages and records for this station are not official NWS values.
T = Trace of Precipitation, MM = Missing Value Source: NWS Daily Summary

Daily Weather History Graph

Daily Weather History Graph

Search for Another Location

Airport or City:

Trip Planner

Search our weather history database for the weather conditions in past years. The results will help you decide how hot, cold, wet, or windy it might be!

Date:

Astronomy

Nov. 20, 2011 Rise Set
Actual Time 7:03 AM EST 5:16 PM EST
Civil Twilight 6:36 AM EST 5:43 PM EST
Nautical Twilight 6:05 AM EST 6:14 PM EST
Astronomical Twilight 5:35 AM EST 6:44 PM EST
Moon 1:41 AM EST (11/20) 1:54 PM EST (11/20)
Length of Visible Light 11h 07m
Length of Day
10h 12m
Waning Crescent, 27% of the Moon is Illuminated
Nov 20
Waning Crescent
Nov 25
New
Dec 2
First Quarter
Dec 10
Full
Dec 17
Last Quarter

Hourly Weather History & Observations

Time (EST) Temp. Dew Point Humidity Pressure Visibility Wind Dir Wind Speed Gust Speed Precip Events Conditions
1:54 AM 44.1 °F 42.1 °F 93% 30.34 in 8.0 mi Calm Calm - N/A   Mostly Cloudy
2:33 AM 44.6 °F 42.8 °F 93% 30.33 in 8.0 mi Calm Calm - N/A   Mostly Cloudy
2:54 AM 46.0 °F 43.0 °F 89% 30.33 in 8.0 mi Calm Calm - N/A   Mostly Cloudy
3:54 AM 45.0 °F 43.0 °F 93% 30.33 in 8.0 mi Calm Calm - N/A   Overcast
4:54 AM 46.9 °F 44.1 °F 90% 30.33 in 8.0 mi Calm Calm - N/A   Overcast
5:32 AM 48.2 °F 46.4 °F 93% 30.33 in 7.0 mi Calm Calm - N/A   Overcast
5:54 AM 48.0 °F 46.0 °F 93% 30.34 in 8.0 mi Calm Calm - N/A   Overcast
7:21 AM 46.4 °F 44.6 °F 93% 30.35 in 6.0 mi Calm Calm - N/A   Overcast
7:54 AM 50.0 °F 46.0 °F 86% 30.37 in 7.0 mi Calm Calm - N/A   Overcast
8:43 AM 51.8 °F 44.6 °F 76% 30.37 in 7.0 mi Calm Calm - N/A   Mostly Cloudy
8:54 AM 53.1 °F 45.0 °F 74% 30.37 in 8.0 mi SE 3.5 mph - N/A   Mostly Cloudy
9:54 AM 60.1 °F 51.1 °F 72% 30.37 in 8.0 mi SSW 4.6 mph - N/A   Partly Cloudy
10:54 AM 63.0 °F 54.0 °F 72% 30.37 in 9.0 mi SSW 5.8 mph - N/A   Overcast
11:54 AM 64.0 °F 54.0 °F 70% 30.35 in 10.0 mi SSW 5.8 mph - N/A   Overcast
1:47 PM 66.2 °F 57.2 °F 73% 30.30 in 10.0 mi SW 8.1 mph - N/A   Overcast
1:54 PM 66.9 °F 57.9 °F 73% 30.30 in 10.0 mi SW 9.2 mph - N/A   Overcast
2:24 PM 62.6 °F 60.8 °F 94% 30.30 in 1.8 mi SW 8.1 mph - 0.00 in Rain Light Rain
2:32 PM 62.6 °F 60.8 °F 94% 30.30 in 2.5 mi SW 8.1 mph - 0.00 in Rain Light Rain
2:47 PM 60.8 °F 60.8 °F 100% 30.30 in 2.5 mi SW 9.2 mph - 0.00 in Rain Light Rain
2:51 PM 60.8 °F 60.8 °F 100% 30.30 in 3.0 mi SW 6.9 mph - 0.00 in   Overcast
2:54 PM 61.0 °F 61.0 °F 100% 30.30 in 3.0 mi SW 5.8 mph - 0.00 in   Overcast
3:18 PM 60.8 °F 60.8 °F 100% 30.29 in 5.0 mi South 5.8 mph - N/A   Overcast
3:43 PM 60.8 °F 60.8 °F 100% 30.29 in 7.0 mi South 5.8 mph - N/A   Overcast
3:54 PM 61.0 °F 59.0 °F 93% 30.29 in 7.0 mi South 5.8 mph - N/A   Mostly Cloudy
4:26 PM 60.8 °F 60.8 °F 100% 30.29 in 6.0 mi South 4.6 mph - N/A   Overcast
4:54 PM 61.0 °F 60.1 °F 97% 30.28 in 6.0 mi SSW 6.9 mph - N/A   Overcast
6:54 PM 60.1 °F 60.1 °F 100% 30.30 in 6.0 mi SSW 6.9 mph - N/A   Overcast
7:17 PM 60.8 °F 60.8 °F 100% 30.30 in 5.0 mi SW 5.8 mph - N/A   Overcast
7:54 PM 60.1 °F 60.1 °F 100% 30.30 in 2.5 mi SW 4.6 mph - N/A   Overcast
8:05 PM 60.8 °F 60.8 °F 100% 30.30 in 3.0 mi SW 8.1 mph - N/A   Overcast
8:54 PM 60.1 °F 60.1 °F 100% 30.28 in 4.0 mi SSW 8.1 mph - N/A   Overcast
9:54 PM 60.1 °F 60.1 °F 100% 30.26 in 5.0 mi SSW 10.4 mph - N/A   Overcast
10:54 PM 60.1 °F 60.1 °F 100% 30.25 in 5.0 mi SW 6.9 mph - N/A   Overcast
11:26 PM 60.8 °F 60.8 °F 100% 30.26 in 5.0 mi WSW 4.6 mph - N/A   Scattered Clouds
11:36 PM 60.8 °F 60.8 °F 100% 30.26 in 6.0 mi WSW 4.6 mph - N/A   Mostly Cloudy
11:54 PM 60.1 °F 60.1 °F 100% 30.25 in 5.0 mi SW 8.1 mph - N/A   Overcast